When you browse on this site, cookies collect data to enhance your experience and personalize the content and advertising you see.
Visit our Privacy Policy to learn more. By continuing to use the site, you agree to this use of cookies and data.
  • In Hungary
  • List of Countries
  • For 7 days
  • Water Temperature
  • Satellite Maps
  • Weather Map
  • News
  • Weather Widgets
  • user-avatar
    Login

    Hourly Weather Vallejo

    Today, 20 June, Thursday

    Time Temperature Precipitation Wind Pressure Humidity
    00:00 +14°C° 0 mm 4 mps 758 mmHg 87%
    01:00 +14°C° 0 mm 4 mps 758 mmHg 88%
    02:00 +14°C° 0 mm 4 mps 758 mmHg 87%
    03:00 +14°C° 0 mm 4 mps 757 mmHg 86%
    04:00 +14°C° 0 mm 4 mps 757 mmHg 86%
    05:00 +14°C° 0 mm 3 mps 757 mmHg 82%
    06:00 +16°C° 0 mm 3 mps 758 mmHg 79%
    07:00 +16°C° 0 mm 3 mps 758 mmHg 76%
    08:00 +18°C° 0 mm 3 mps 758 mmHg 69%
    09:00 +20°C° 0 mm 3 mps 757 mmHg 61%
    10:00 +22°C° 0 mm 3 mps 757 mmHg 53%
    11:00 +23°C° 0 mm 4 mps 757 mmHg 51%
    12:00 +23°C° 0 mm 4 mps 757 mmHg 48%
    13:00 +25°C° 0 mm 4 mps 757 mmHg 46%
    14:00 +25°C° 0 mm 4 mps 756 mmHg 46%
    15:00 +25°C° 0 mm 4 mps 756 mmHg 46%
    16:00 +23°C° 0 mm 4 mps 756 mmHg 46%
    17:00 +22°C° 0 mm 4 mps 755 mmHg 50%
    18:00 +21°C° 0 mm 3 mps 755 mmHg 53%
    19:00 +19°C° 0 mm 3 mps 755 mmHg 57%
    20:00 +18°C° 0 mm 3 mps 755 mmHg 60%
    21:00 +17°C° 0 mm 3 mps 756 mmHg 64%
    22:00 +16°C° 0 mm 2 mps 756 mmHg 67%
    23:00 +16°C° 0 mm 2 mps 756 mmHg 69%

    Tomorrow, 21 June, Friday

    Time Temperature Precipitation Wind Pressure Humidity
    00:00 +15°C° 0 mm 2 mps 756 mmHg 71%
    01:00 +15°C° 0 mm 1 mps 756 mmHg 73%
    02:00 +15°C° 0 mm 1 mps 756 mmHg 73%
    03:00 +15°C° 0 mm 1 mps 756 mmHg 74%
    04:00 +14°C° 0 mm 1 mps 756 mmHg 75%
    05:00 +16°C° 0 mm 1 mps 756 mmHg 69%
    06:00 +18°C° 0 mm 1 mps 756 mmHg 64%
    07:00 +19°C° 0 mm 1 mps 757 mmHg 58%
    08:00 +22°C° 0 mm 1 mps 757 mmHg 48%
    09:00 +24°C° 0 mm 1 mps 757 mmHg 39%
    10:00 +27°C° 0 mm 2 mps 757 mmHg 29%
    11:00 +28°C° 0 mm 2 mps 757 mmHg 27%
    12:00 +30°C° 0 mm 2 mps 757 mmHg 25%
    13:00 +31°C° 0 mm 3 mps 757 mmHg 22%
    14:00 +30°C° 0 mm 3 mps 756 mmHg 24%
    15:00 +29°C° 0 mm 4 mps 756 mmHg 25%
    16:00 +29°C° 0 mm 4 mps 756 mmHg 27%
    17:00 +27°C° 0 mm 3 mps 756 mmHg 30%
    18:00 +26°C° 0 mm 3 mps 756 mmHg 34%
    19:00 +24°C° 0 mm 2 mps 756 mmHg 38%
    20:00 +21°C° 0 mm 2 mps 756 mmHg 43%
    21:00 +20°C° 0 mm 2 mps 757 mmHg 48%
    22:00 +18°C° 0 mm 2 mps 757 mmHg 53%
    23:00 +18°C° 0 mm 2 mps 757 mmHg 56%

    Day after tomorrow, 22 June, Saturday

    Time Temperature Precipitation Wind Pressure Humidity
    00:00 +17°C° 0 mm 2 mps 757 mmHg 59%
    01:00 +16°C° 0 mm 1 mps 757 mmHg 63%
    02:00 +16°C° 0 mm 1 mps 757 mmHg 63%
    03:00 +16°C° 0 mm 1 mps 757 mmHg 63%
    04:00 +16°C° 0 mm 1 mps 757 mmHg 63%
    05:00 +19°C° 0 mm 1 mps 757 mmHg 57%
    06:00 +20°C° 0 mm 1 mps 757 mmHg 51%
    07:00 +20°C° 0 mm 0 mps 757 mmHg 45%
    08:00 +25°C° 0 mm 1 mps 758 mmHg 38%
    09:00 +27°C° 0 mm 1 mps 758 mmHg 31%
    10:00 +30°C° 0 mm 1 mps 758 mmHg 25%
    11:00 +31°C° 0 mm 2 mps 758 mmHg 23%
    12:00 +34°C° 0 mm 2 mps 758 mmHg 21%
    13:00 +35°C° 0 mm 3 mps 758 mmHg 19%
    14:00 +34°C° 0 mm 3 mps 758 mmHg 22%
    15:00 +33°C° 0 mm 4 mps 758 mmHg 24%
    16:00 +32°C° 0 mm 4 mps 758 mmHg 26%
    17:00 +29°C° 0 mm 4 mps 758 mmHg 29%
    18:00 +27°C° 0 mm 3 mps 758 mmHg 32%
    19:00 +25°C° 0 mm 3 mps 758 mmHg 35%
    20:00 +24°C° 0 mm 3 mps 758 mmHg 40%
    21:00 +21°C° 0 mm 2 mps 758 mmHg 45%
    22:00 +19°C° 0 mm 2 mps 759 mmHg 50%
    23:00 +19°C° 0 mm 2 mps 758 mmHg 52%

    23 June, Sunday

    Time Temperature Precipitation Wind Pressure Humidity
    00:00 +18°C° 0 mm 2 mps 758 mmHg 54%
    01:00 +18°C° 0 mm 2 mps 758 mmHg 57%
    02:00 +19°C° 0 mm 1 mps 758 mmHg 58%
    03:00 +18°C° 0 mm 1 mps 758 mmHg 59%
    04:00 +18°C° 0 mm 1 mps 758 mmHg 61%
    05:00 +19°C° 0 mm 1 mps 758 mmHg 57%
    06:00 +21°C° 0 mm 1 mps 758 mmHg 53%
    07:00 +22°C° 0 mm 1 mps 759 mmHg 48%
    08:00 +25°C° 0 mm 1 mps 759 mmHg 42%
    09:00 +28°C° 0 mm 1 mps 759 mmHg 35%
    10:00 +30°C° 0 mm 1 mps 759 mmHg 28%
    11:00 +31°C° 0 mm 2 mps 759 mmHg 25%
    12:00 +33°C° 0 mm 3 mps 758 mmHg 23%
    13:00 +35°C° 0 mm 3 mps 758 mmHg 20%
    14:00 +34°C° 0 mm 4 mps 758 mmHg 22%
    15:00 +33°C° 0 mm 4 mps 758 mmHg 23%
    16:00 +32°C° 0 mm 4 mps 758 mmHg 25%
    17:00 +29°C° 0 mm 4 mps 757 mmHg 29%
    18:00 +27°C° 0 mm 3 mps 757 mmHg 34%
    19:00 +25°C° 0 mm 3 mps 757 mmHg 38%
    20:00 +24°C° 0 mm 3 mps 758 mmHg 44%
    21:00 +21°C° 0 mm 2 mps 758 mmHg 49%
    22:00 +19°C° 0 mm 2 mps 758 mmHg 54%
    23:00 +19°C° 0 mm 2 mps 758 mmHg 57%

    24 June, Monday

    Time Temperature Precipitation Wind Pressure Humidity
    00:00 +18°C° 0 mm 2 mps 757 mmHg 60%
    01:00 +17°C° 0 mm 2 mps 757 mmHg 63%
    02:00 +18°C° 0 mm 1 mps 757 mmHg 65%
    03:00 +16°C° 0 mm 1 mps 757 mmHg 67%
    04:00 +16°C° 0 mm 1 mps 757 mmHg 69%
    05:00 +18°C° 0 mm 1 mps 757 mmHg 64%
    06:00 +19°C° 0 mm 1 mps 757 mmHg 60%
    07:00 +21°C° 0 mm 1 mps 757 mmHg 55%
    08:00 +23°C° 0 mm 1 mps 757 mmHg 49%
    09:00 +25°C° 0 mm 2 mps 757 mmHg 42%
    10:00 +27°C° 0 mm 2 mps 757 mmHg 36%
    11:00 +28°C° 0 mm 3 mps 756 mmHg 34%
    12:00 +29°C° 0 mm 3 mps 756 mmHg 33%
    13:00 +30°C° 0 mm 4 mps 756 mmHg 31%
    14:00 +30°C° 0 mm 4 mps 756 mmHg 31%
    15:00 +30°C° 0 mm 4 mps 755 mmHg 30%
    16:00 +30°C° 0 mm 4 mps 755 mmHg 30%
    17:00 +28°C° 0 mm 4 mps 755 mmHg 34%
    18:00 +26°C° 0 mm 3 mps 755 mmHg 38%
    19:00 +24°C° 0 mm 3 mps 755 mmHg 42%
    20:00 +22°C° 0 mm 3 mps 755 mmHg 46%
    21:00 +20°C° 0 mm 3 mps 756 mmHg 51%
    22:00 +19°C° 0 mm 3 mps 756 mmHg 55%
    23:00 +18°C° 0 mm 3 mps 756 mmHg 57%

    25 June, Tuesday

    Time Temperature Precipitation Wind Pressure Humidity
    00:00 +17°C° 0 mm 3 mps 756 mmHg 60%
    01:00 +17°C° 0 mm 2 mps 756 mmHg 62%
    02:00 +16°C° 0 mm 2 mps 756 mmHg 64%
    03:00 +15°C° 0 mm 2 mps 756 mmHg 66%
    04:00 +15°C° 0 mm 2 mps 756 mmHg 68%
    05:00 +16°C° 0 mm 2 mps 756 mmHg 63%
    06:00 +16°C° 0 mm 2 mps 757 mmHg 59%
    07:00 +17°C° 0 mm 2 mps 757 mmHg 55%
    08:00 +19°C° 0 mm 3 mps 757 mmHg 48%
    09:00 +22°C° 0 mm 3 mps 757 mmHg 41%
    10:00 +25°C° 0 mm 3 mps 757 mmHg 35%
    11:00 +26°C° 0 mm 4 mps 757 mmHg 33%
    12:00 +27°C° 0 mm 5 mps 757 mmHg 32%
    13:00 +28°C° 0 mm 5 mps 757 mmHg 30%
    14:00 +27°C° 0 mm 6 mps 757 mmHg 32%
    15:00 +26°C° 0 mm 6 mps 757 mmHg 33%
    16:00 +26°C° 0 mm 6 mps 757 mmHg 34%
    17:00 +23°C° 0 mm 6 mps 757 mmHg 39%
    18:00 +22°C° 0 mm 5 mps 758 mmHg 44%
    19:00 +20°C° 0 mm 5 mps 758 mmHg 49%
    20:00 +19°C° 0 mm 4 mps 758 mmHg 55%
    21:00 +17°C° 0 mm 4 mps 759 mmHg 61%
    22:00 +15°C° 0 mm 4 mps 759 mmHg 67%
    23:00 +14°C° 0 mm 4 mps 759 mmHg 69%
    Show more